Date String (YYYY-MM-DD hh:mm:ss) UTC,Instrument flags,Ambient pressure (hPa),Sample flow (lpm),Bypass flow (lpm),Sample temperature (°C),Ambient temperature (°C),ASC tube jacket temperature (°C),LED temperature (°C),Box temperature (°C),Sample RH (%),Span deviation,Mass concentration (μg/m³),Mass concentration (μg/m³),Mass concentration (μg/m³)
DateTimeUTC,F1_M11,P_M11,Q1_M11,Q2_M11,T1_M11,T2_M11,T3_M11,T4_M11,T5_M11,U1_M11,ZSPAN_M11,X0_M11,X2_M11,X1_M11
2022-06-25 19:00:00,,0835.5,5.01,0.00,29.8,28.5,00.0,38.7,31.7,20.1,0000.0,0008.56,0002.93,0002.25
2022-06-25 19:01:00,,0835.5,5.00,0.00,29.9,28.6,00.0,38.7,31.8,20.2,0000.0,0008.52,0002.94,0002.24
2022-06-25 19:02:00,,0835.4,5.00,0.00,29.9,28.7,00.0,38.7,31.8,20.2,0000.0,0008.61,0003.04,0002.27
2022-06-25 19:03:00,,0835.5,5.00,0.00,29.9,28.8,00.0,38.7,31.8,20.0,0000.0,0008.68,0003.09,0002.31
2022-06-25 19:04:00,,0835.4,4.99,0.00,29.9,28.9,00.0,38.7,31.9,19.9,0000.0,0008.49,0003.13,0002.32
2022-06-25 19:05:00,,0835.4,4.99,0.00,30.0,29.0,00.0,38.7,31.9,20.0,0000.0,0008.29,0003.11,0002.31
2022-06-25 19:06:00,,0835.4,5.01,0.00,30.0,29.0,00.0,38.7,31.9,20.0,0000.0,0008.20,0003.13,0002.34
2022-06-25 19:07:00,,0835.4,5.00,0.00,30.0,29.1,00.0,38.8,32.0,19.9,0000.0,0008.10,0003.10,0002.36
2022-06-25 19:08:00,,0835.4,4.99,0.00,30.0,29.2,00.0,38.8,32.0,19.9,0000.0,0008.35,0003.10,0002.39
2022-06-25 19:09:00,,0835.4,5.00,0.00,30.1,29.2,00.0,38.8,32.0,20.0,0000.0,0008.72,0003.12,0002.40
2022-06-25 19:10:00,,0835.4,5.00,0.00,30.1,29.3,00.0,38.8,32.0,20.1,0000.0,0008.86,0003.16,0002.41
2022-06-25 19:11:00,,0835.4,5.00,0.00,30.1,29.3,00.0,38.9,32.1,19.9,0000.0,0008.27,0003.16,0002.41
2022-06-25 19:12:00,,0835.4,5.00,0.00,30.2,29.3,00.0,38.9,32.1,19.9,0000.0,0007.46,0003.16,0002.43
2022-06-25 19:13:00,,0835.4,5.02,0.00,30.2,28.9,00.0,38.8,32.0,19.9,0000.0,0007.16,0003.14,0002.44
2022-06-25 19:14:00,,0835.4,5.00,0.00,30.1,28.0,00.0,38.8,31.8,20.0,0000.0,0006.37,0003.14,0002.44
2022-06-25 19:15:00,,0835.4,4.99,0.00,30.0,27.5,00.0,38.7,31.6,20.2,0000.0,0006.47,0003.14,0002.43
2022-06-25 19:16:00,,0835.3,5.00,0.00,29.9,27.4,00.0,38.7,31.5,20.2,0000.0,0006.52,0003.15,0002.43
2022-06-25 19:17:00,,0835.3,5.00,0.00,29.8,27.5,00.0,38.7,31.5,20.5,0000.0,0006.67,0003.18,0002.44
2022-06-25 19:18:00,,0835.2,4.99,0.00,29.8,27.6,00.0,38.7,31.5,20.6,0000.0,0006.70,0003.19,0002.45
2022-06-25 19:19:00,,0835.2,5.01,0.00,29.8,27.8,00.0,38.7,31.5,20.4,0000.0,0006.15,0003.19,0002.46
2022-06-25 19:20:00,,0835.2,5.00,0.00,29.8,28.0,00.0,38.7,31.6,20.5,0000.0,0005.70,0003.20,0002.49
2022-06-25 19:21:00,,0835.2,5.00,0.00,29.8,28.1,00.0,38.6,31.6,20.7,0000.0,0005.59,0003.19,0002.52
2022-06-25 19:22:00,,0835.2,4.99,0.00,29.8,28.3,00.0,38.6,31.6,20.6,0000.0,0005.62,0003.19,0002.53
2022-06-25 19:23:00,,0835.2,5.01,0.00,29.8,28.4,00.0,38.6,31.7,20.5,0000.0,0005.61,0003.21,0002.55
2022-06-25 19:24:00,,0835.2,5.00,0.00,29.8,28.5,00.0,38.6,31.7,21.0,0000.0,0005.56,0003.22,0002.56
2022-06-25 19:25:00,,0835.2,5.01,0.00,29.8,28.7,00.0,38.6,31.7,21.0,0000.0,0005.31,0003.19,0002.56
2022-06-25 19:26:00,,0835.2,4.99,0.00,29.9,28.8,00.0,38.7,31.8,20.8,0000.0,0005.10,0003.17,0002.57
2022-06-25 19:27:00,,0835.2,5.00,0.00,29.9,28.8,00.0,38.7,31.8,20.5,0000.0,0005.01,0003.18,0002.58
2022-06-25 19:28:00,,0835.2,5.00,0.00,29.9,28.9,00.0,38.7,31.9,20.7,0000.0,0005.01,0003.19,0002.59
2022-06-25 19:29:00,,0835.2,5.01,0.00,29.9,29.0,00.0,38.7,31.9,20.7,0000.0,0005.11,0003.21,0002.60
2022-06-25 19:30:00,,0835.2,5.00,0.00,30.0,29.1,00.0,38.7,31.9,20.5,0000.0,0005.08,0003.23,0002.62
2022-06-25 19:31:00,,0835.2,4.99,0.00,30.0,29.1,00.0,38.7,32.0,20.4,0000.0,0005.03,0003.26,0002.63
2022-06-25 19:32:00,,0835.2,5.00,0.00,30.0,29.2,00.0,38.8,32.0,20.2,0000.0,0005.58,0003.31,0002.66
2022-06-25 19:33:00,,0835.2,5.01,0.00,30.1,29.2,00.0,38.8,32.0,20.2,0000.0,0005.88,0003.31,0002.68
2022-06-25 19:34:00,,0835.1,5.01,0.00,30.1,29.3,00.0,38.8,32.0,20.2,0000.0,0006.03,0003.34,0002.71
2022-06-25 19:35:00,,0835.2,5.00,0.00,30.1,29.3,00.0,38.8,32.1,20.2,0000.0,0006.29,0003.36,0002.73
2022-06-25 19:36:00,,0835.1,5.00,0.00,30.1,29.2,00.0,38.8,32.1,20.2,0000.0,0007.47,0003.40,0002.74
2022-06-25 19:37:00,,0835.0,5.00,0.00,30.1,28.4,00.0,38.8,31.9,20.2,0000.0,0007.92,0003.41,0002.75
2022-06-25 19:38:00,,0835.1,5.00,0.00,30.0,27.7,00.0,38.7,31.7,20.3,0000.0,0007.90,0003.41,0002.78
2022-06-25 19:39:00,,0835.0,5.00,0.00,29.9,27.5,00.0,38.7,31.6,20.4,0000.0,0007.87,0003.40,0002.79
2022-06-25 19:40:00,,0835.1,5.00,0.00,29.9,27.5,00.0,38.7,31.5,20.4,0000.0,0008.73,0003.41,0002.81
2022-06-25 19:41:00,,0835.0,5.01,0.00,29.8,27.6,00.0,38.6,31.5,20.5,0000.0,0009.15,0003.43,0002.84
2022-06-25 19:42:00,,0835.0,4.99,0.00,29.8,27.7,00.0,38.6,31.5,20.7,0000.0,0009.19,0003.42,0002.85
2022-06-25 19:43:00,,0835.0,4.99,0.00,29.8,27.9,00.0,38.6,31.6,20.8,0000.0,0008.96,0003.40,0002.85
2022-06-25 19:44:00,,0835.0,4.99,0.00,29.8,28.1,00.0,38.6,31.6,20.7,0000.0,0008.67,0003.40,0002.86
2022-06-25 19:45:00,,0835.0,5.00,0.00,29.8,28.2,00.0,38.6,31.6,20.9,0000.0,0008.55,0003.36,0002.85
2022-06-25 19:46:00,,0835.0,5.00,0.00,29.8,28.4,00.0,38.6,31.7,20.8,0000.0,0008.38,0003.33,0002.84
2022-06-25 19:47:00,,0835.0,5.02,0.00,29.8,28.5,00.0,38.6,31.7,20.9,0000.0,0007.83,0003.36,0002.84
2022-06-25 19:48:00,,0835.0,4.98,0.00,29.8,28.6,00.0,38.6,31.7,21.0,0000.0,0008.34,0003.36,0002.86
2022-06-25 19:49:00,,0834.9,5.00,0.00,29.8,28.7,00.0,38.6,31.8,21.0,0000.0,0008.55,0003.38,0002.85
2022-06-25 19:50:00,,0834.9,5.00,0.00,29.9,28.8,00.0,38.6,31.7,21.2,0000.0,0008.85,0003.42,0002.83
2022-06-25 19:51:00,,0834.9,5.00,0.00,29.9,28.9,00.0,38.7,31.8,20.9,0000.0,0008.63,0003.42,0002.82
2022-06-25 19:52:00,,0834.9,5.00,0.00,29.9,28.9,00.0,38.7,31.9,20.8,0000.0,0008.14,0003.39,0002.79
2022-06-25 19:53:00,,0834.9,5.01,0.00,29.9,29.0,00.0,38.7,31.9,20.9,0000.0,0008.45,0003.38,0002.74
2022-06-25 19:54:00,,0834.9,5.00,0.00,30.0,29.1,00.0,38.7,31.9,20.9,0000.0,0009.02,0003.34,0002.71
2022-06-25 19:55:00,,0834.8,5.00,0.00,30.0,29.1,00.0,38.7,32.0,20.7,0000.0,0009.44,0003.34,0002.69
2022-06-25 19:56:00,,0834.8,5.01,0.00,30.0,29.2,00.0,38.7,32.0,20.7,0000.0,0009.56,0003.36,0002.68
2022-06-25 19:57:00,,0834.8,4.99,0.00,30.0,29.2,00.0,38.8,32.0,20.8,0000.0,0009.58,0003.37,0002.68
2022-06-25 19:58:00,,0834.8,5.00,0.00,30.1,29.2,00.0,38.8,32.0,20.7,0000.0,0009.64,0003.38,0002.68
2022-06-25 19:59:00,,0834.7,5.01,0.00,30.1,28.7,00.0,38.7,31.9,20.6,0000.0,0009.93,0003.37,0002.67
